• Em Portugal
  • Lista de países
  • Para 7 dias
  • Temperatura da água
  • Mapas de satélite
  • Mapa do tempo
  • Widgets de tempo
  • user-avatar
    Iniciar Sessão

    Previsão horária em Juwaja

    Hoje, 11 Dezembro, Segunda-feira

    Tempo Temperatura Precipitação Vento Pressão Humidade
    00:00 +14°C° 0 mm 2 m/s 742 mmHg 43%
    01:00 +13°C° 0 mm 3 m/s 742 mmHg 44%
    02:00 +13°C° 0 mm 3 m/s 742 mmHg 54%
    03:00 +13°C° 0 mm 3 m/s 742 mmHg 53%
    04:00 +13°C° 0 mm 3 m/s 743 mmHg 52%
    05:00 +13°C° 0 mm 3 m/s 743 mmHg 51%
    06:00 +13°C° 0 mm 3 m/s 743 mmHg 48%
    07:00 +14°C° 0 mm 3 m/s 743 mmHg 44%
    08:00 +16°C° 0 mm 3 m/s 743 mmHg 40%
    09:00 +18°C° 0 mm 3 m/s 743 mmHg 34%
    10:00 +20°C° 0 mm 3 m/s 744 mmHg 28%
    11:00 +21°C° 0 mm 3 m/s 744 mmHg 21%
    12:00 +22°C° 0 mm 3 m/s 744 mmHg 21%
    13:00 +22°C° 0 mm 3 m/s 743 mmHg 20%
    14:00 +23°C° 0 mm 4 m/s 743 mmHg 19%
    15:00 +21°C° 0 mm 4 m/s 743 mmHg 22%
    16:00 +20°C° 0 mm 4 m/s 743 mmHg 25%
    17:00 +18°C° 0 mm 4 m/s 743 mmHg 28%
    18:00 +18°C° 0 mm 4 m/s 743 mmHg 26%
    19:00 +17°C° 0 mm 4 m/s 743 mmHg 24%
    20:00 +17°C° 0 mm 4 m/s 743 mmHg 22%
    21:00 +17°C° 0 mm 4 m/s 743 mmHg 22%
    22:00 +17°C° 0 mm 4 m/s 743 mmHg 21%
    23:00 +17°C° 0 mm 4 m/s 743 mmHg 20%

    Amanhã, 12 Dezembro, Terça-feira

    Tempo Temperatura Precipitação Vento Pressão Humidade
    00:00 +15°C° 0 mm 4 m/s 743 mmHg 20%
    01:00 +15°C° 0 mm 4 m/s 743 mmHg 21%
    02:00 +14°C° 0 mm 4 m/s 742 mmHg 21%
    03:00 +14°C° 0 mm 4 m/s 742 mmHg 22%
    04:00 +14°C° 0 mm 4 m/s 742 mmHg 23%
    05:00 +14°C° 0 mm 4 m/s 742 mmHg 23%
    06:00 +14°C° 0 mm 4 m/s 742 mmHg 24%
    07:00 +15°C° 0 mm 4 m/s 742 mmHg 24%
    08:00 +17°C° 0 mm 3 m/s 742 mmHg 25%
    09:00 +19°C° 0 mm 3 m/s 742 mmHg 22%
    10:00 +21°C° 0 mm 3 m/s 742 mmHg 19%
    11:00 +24°C° 0 mm 3 m/s 742 mmHg 16%
    12:00 +25°C° 0 mm 3 m/s 742 mmHg 16%
    13:00 +25°C° 0 mm 3 m/s 741 mmHg 16%
    14:00 +26°C° 0 mm 2 m/s 741 mmHg 15%
    15:00 +24°C° 0 mm 2 m/s 741 mmHg 19%
    16:00 +21°C° 0 mm 2 m/s 740 mmHg 22%
    17:00 +19°C° 0 mm 2 m/s 740 mmHg 25%
    18:00 +19°C° 0 mm 2 m/s 740 mmHg 23%
    19:00 +18°C° 0 mm 2 m/s 740 mmHg 22%
    20:00 +18°C° 0 mm 2 m/s 740 mmHg 21%
    21:00 +17°C° 0 mm 2 m/s 740 mmHg 20%
    22:00 +17°C° 0 mm 2 m/s 740 mmHg 19%
    23:00 +17°C° 0 mm 2 m/s 740 mmHg 18%

    Depois de amanhã, 13 Dezembro, Quarta-feira

    Tempo Temperatura Precipitação Vento Pressão Humidade
    00:00 +16°C° 0 mm 2 m/s 740 mmHg 18%
    01:00 +16°C° 0 mm 2 m/s 740 mmHg 18%
    02:00 +15°C° 0 mm 2 m/s 740 mmHg 18%
    03:00 +15°C° 0 mm 2 m/s 739 mmHg 19%
    04:00 +15°C° 0 mm 1 m/s 739 mmHg 19%
    05:00 +15°C° 0 mm 1 m/s 739 mmHg 20%
    06:00 +16°C° 0 mm 1 m/s 739 mmHg 23%
    07:00 +16°C° 0 mm 1 m/s 740 mmHg 25%
    08:00 +18°C° 0 mm 1 m/s 740 mmHg 28%
    09:00 +20°C° 0 mm 1 m/s 740 mmHg 27%
    10:00 +20°C° 0 mm 2 m/s 740 mmHg 27%
    11:00 +23°C° 0 mm 2 m/s 740 mmHg 26%
    12:00 +22°C° 0 mm 3 m/s 739 mmHg 28%
    13:00 +22°C° 0 mm 3 m/s 739 mmHg 31%
    14:00 +22°C° 0 mm 4 m/s 739 mmHg 34%
    15:00 +20°C° 0 mm 4 m/s 739 mmHg 41%
    16:00 +19°C° 0 mm 3 m/s 739 mmHg 48%
    17:00 +17°C° 0 mm 3 m/s 739 mmHg 56%
    18:00 +16°C° 0 mm 3 m/s 739 mmHg 57%
    19:00 +16°C° 0 mm 3 m/s 739 mmHg 59%
    20:00 +14°C° 0 mm 3 m/s 739 mmHg 61%
    21:00 +15°C° 0 mm 2 m/s 739 mmHg 62%
    22:00 +14°C° 0 mm 2 m/s 739 mmHg 63%
    23:00 +14°C° 0 mm 2 m/s 739 mmHg 63%

    14 Dezembro, Quinta-feira

    Tempo Temperatura Precipitação Vento Pressão Humidade
    00:00 +14°C° 0 mm 2 m/s 739 mmHg 64%
    01:00 +13°C° 0 mm 2 m/s 739 mmHg 65%
    02:00 +13°C° 0 mm 2 m/s 739 mmHg 66%
    03:00 +13°C° 0 mm 2 m/s 739 mmHg 66%
    04:00 +13°C° 0 mm 1 m/s 739 mmHg 67%
    05:00 +13°C° 0 mm 1 m/s 739 mmHg 67%
    06:00 +13°C° 0 mm 1 m/s 739 mmHg 63%
    07:00 +14°C° 0 mm 1 m/s 740 mmHg 60%
    08:00 +15°C° 0 mm 1 m/s 740 mmHg 56%
    09:00 +18°C° 0 mm 1 m/s 740 mmHg 52%
    10:00 +18°C° 0 mm 2 m/s 740 mmHg 48%
    11:00 +19°C° 0 mm 2 m/s 740 mmHg 43%
    12:00 +20°C° 0 mm 3 m/s 740 mmHg 45%
    13:00 +20°C° 0 mm 3 m/s 739 mmHg 47%
    14:00 +20°C° 0 mm 4 m/s 739 mmHg 49%
    15:00 +19°C° 0 mm 3 m/s 739 mmHg 58%
    16:00 +17°C° 0 mm 3 m/s 739 mmHg 67%
    17:00 +16°C° 0 mm 3 m/s 739 mmHg 76%
    18:00 +16°C° 0 mm 2 m/s 739 mmHg 79%
    19:00 +15°C° 0 mm 2 m/s 739 mmHg 82%
    20:00 +15°C° 0 mm 2 m/s 740 mmHg 85%
    21:00 +14°C° 0 mm 2 m/s 740 mmHg 85%
    22:00 +14°C° 0 mm 2 m/s 739 mmHg 86%
    23:00 +14°C° 0 mm 2 m/s 739 mmHg 87%

    15 Dezembro, Sexta-feira

    Tempo Temperatura Precipitação Vento Pressão Humidade
    00:00 +14°C° 0 mm 2 m/s 739 mmHg 87%
    01:00 +14°C° 0 mm 2 m/s 739 mmHg 88%
    02:00 +14°C° 0 mm 2 m/s 739 mmHg 88%
    03:00 +13°C° 0,1 mm 2 m/s 739 mmHg 89%
    04:00 +13°C° 0,1 mm 2 m/s 739 mmHg 89%
    05:00 +13°C° 0,1 mm 2 m/s 739 mmHg 90%
    06:00 +14°C° 0,1 mm 2 m/s 739 mmHg 87%
    07:00 +14°C° 0,1 mm 2 m/s 740 mmHg 84%
    08:00 +15°C° 0,1 mm 2 m/s 740 mmHg 81%
    09:00 +16°C° 0 mm 2 m/s 740 mmHg 73%
    10:00 +17°C° 0 mm 2 m/s 740 mmHg 66%
    11:00 +18°C° 0 mm 2 m/s 740 mmHg 59%
    12:00 +19°C° 0 mm 3 m/s 740 mmHg 59%
    13:00 +19°C° 0 mm 3 m/s 740 mmHg 59%
    14:00 +19°C° 0 mm 3 m/s 740 mmHg 59%
    15:00 +18°C° 0 mm 3 m/s 740 mmHg 64%
    16:00 +17°C° 0 mm 3 m/s 740 mmHg 69%
    17:00 +16°C° 0 mm 2 m/s 740 mmHg 74%
    18:00 +15°C° 0 mm 2 m/s 740 mmHg 77%
    19:00 +15°C° 0 mm 1 m/s 740 mmHg 80%
    20:00 +14°C° 0 mm 1 m/s 741 mmHg 82%
    21:00 +14°C° 0 mm 1 m/s 741 mmHg 84%
    22:00 +14°C° 0 mm 1 m/s 741 mmHg 85%
    23:00 +13°C° 0 mm 1 m/s 741 mmHg 86%

    16 Dezembro, Sábado

    Tempo Temperatura Precipitação Vento Pressão Humidade
    00:00 +13°C° 0 mm 1 m/s 741 mmHg 87%
    01:00 +13°C° 0 mm 1 m/s 741 mmHg 88%
    02:00 +13°C° 0 mm 1 m/s 741 mmHg 89%
    03:00 +12°C° 0 mm 1 m/s 741 mmHg 89%
    04:00 +12°C° 0 mm 1 m/s 741 mmHg 89%
    05:00 +12°C° 0 mm 1 m/s 741 mmHg 88%
    06:00 +13°C° 0 mm 1 m/s 741 mmHg 85%
    07:00 +14°C° 0 mm 1 m/s 741 mmHg 81%
    08:00 +15°C° 0 mm 1 m/s 742 mmHg 77%
    09:00 +16°C° 0 mm 1 m/s 742 mmHg 71%
    10:00 +18°C° 0 mm 1 m/s 741 mmHg 64%
    11:00 +19°C° 0 mm 1 m/s 741 mmHg 57%
    12:00 +20°C° 0 mm 1 m/s 741 mmHg 55%
    13:00 +20°C° 0 mm 1 m/s 741 mmHg 53%
    14:00 +20°C° 0 mm 1 m/s 740 mmHg 51%
    15:00 +19°C° 0 mm 1 m/s 740 mmHg 56%
    16:00 +17°C° 0 mm 2 m/s 740 mmHg 62%
    17:00 +16°C° 0 mm 2 m/s 740 mmHg 67%
    18:00 +16°C° 0 mm 2 m/s 741 mmHg 68%
    19:00 +16°C° 0 mm 2 m/s 741 mmHg 70%
    20:00 +15°C° 0 mm 2 m/s 741 mmHg 71%
    21:00 +15°C° 0 mm 2 m/s 741 mmHg 70%
    22:00 +15°C° 0 mm 2 m/s 741 mmHg 69%
    23:00 +15°C° 0 mm 2 m/s 741 mmHg 68%
    Mostrar mais